Location: B?dimalle
(17.1788°N, 80.5377°E)
Time: 22:58:34
(UTC+00:00)

Courier 1B Rocket - All Passes

Search period start: 16 February 2026 00:00
Search period end: 26 February 2026 00:00
Orbit: 920 x 1201 km, 28.2° (Epoch: 16 February)

Date Brightness Start Highest point End Pass type
(mag) Time Alt. Az. Time Alt. Az. Time Alt. Az.
16 Feb - 10:45:25 10° SSW 10:50:30 26° SSE 10:55:32 10° E daylight
16 Feb - 12:37:26 10° WSW 12:43:41 89° SSE 12:50:04 10° ENE daylight
16 Feb - 14:31:35 10° W 14:37:26 39° NNW 14:43:34 10° NE visible
16 Feb - 16:26:07 10° WNW 16:31:50 31° N 16:37:55 10° ENE visible
16 Feb - 18:19:41 10° WNW 18:26:15 47° NNE 18:33:17 10° E night (unlit)
16 Feb - 20:13:00 10° WNW 20:20:09 76° SSW 20:27:50 10° ESE night (unlit)
16 Feb - 22:07:51 10° W 22:13:49 26° SSW 22:19:59 10° SSE visible
17 Feb - 09:45:30 10° S 09:49:19 16° SSE 09:53:04 10° ESE daylight
17 Feb - 11:36:21 10° SW 11:42:31 61° SSE 11:48:41 10° ENE daylight
17 Feb - 13:30:00 10° W 13:36:00 49° NNW 13:42:12 10° ENE visible
17 Feb - 15:24:39 10° WNW 15:30:13 31° N 15:36:04 10° ENE visible
17 Feb - 17:18:33 10° NW 17:24:40 38° NNE 17:31:13 10° E night (unlit)
17 Feb - 19:11:45 10° WNW 19:18:43 80° NNE 19:26:13 10° ESE night (unlit)
17 Feb - 21:05:46 10° W 21:12:23 37° SSW 21:19:19 10° SE visible
18 Feb - 10:35:28 10° SW 10:41:22 40° SSE 10:47:09 10° E daylight
18 Feb - 12:28:29 10° WSW 12:34:41 65° NNW 12:40:56 10° ENE daylight
18 Feb - 14:23:04 10° WNW 14:28:39 33° N 14:34:26 10° NE visible
18 Feb - 16:17:20 10° NW 16:23:05 33° N 16:29:09 10° ENE visible
18 Feb - 18:10:36 10° WNW 18:17:15 60° NNE 18:24:25 10° E night (unlit)
18 Feb - 20:04:06 10° WNW 20:10:57 53° SSW 20:18:16 10° SE night (unlit)
18 Feb - 22:00:17 10° WSW 22:04:37 16° SSW 22:09:04 10° S visible
19 Feb - 09:34:53 10° SSW 09:40:12 27° SSE 09:45:22 10° E daylight
19 Feb - 11:27:07 10° WSW 11:33:27 90° NNW 11:39:42 10° ENE daylight
19 Feb - 13:21:25 10° W 13:27:09 38° NNW 13:33:03 10° NE visible
19 Feb - 15:16:00 10° WNW 15:21:29 30° N 15:27:13 10° ENE visible
19 Feb - 17:09:31 10° NW 17:15:47 46° NNE 17:22:28 10° E night (unlit)
19 Feb - 19:02:45 10° WNW 19:09:34 75° SSW 19:16:56 10° ESE night (unlit)
19 Feb - 20:57:32 10° W 21:03:09 24° SSW 21:09:01 10° SSE night (unlit)
20 Feb - 08:34:46 10° S 08:38:59 18° SSE 08:43:04 10° ESE daylight
20 Feb - 10:25:55 10° SW 10:32:16 63° SSE 10:38:25 10° ENE daylight
20 Feb - 12:19:44 10° W 12:25:46 48° NNW 12:31:47 10° ENE daylight
20 Feb - 14:14:31 10° WNW 14:19:55 30° N 14:25:29 10° ENE visible
20 Feb - 16:08:25 10° NW 16:14:16 37° NNE 16:20:28 10° ENE visible
20 Feb - 18:01:33 10° WNW 18:08:11 81° NNE 18:15:22 10° ESE night (unlit)
20 Feb - 19:55:31 10° W 20:01:44 35° SSW 20:08:23 10° SE night (unlit)
21 Feb - 07:36:02 10° SSE 07:37:40 11° SSE 07:39:16 10° SE daylight
21 Feb - 09:24:55 10° SW 09:31:05 42° SSE 09:36:59 10° E daylight
21 Feb - 11:18:08 10° WSW 11:24:27 64° NNW 11:30:38 10° ENE daylight
21 Feb - 13:12:52 10° WNW 13:18:23 32° N 13:23:59 10° NE visible
21 Feb - 15:07:13 10° NW 15:12:45 32° N 15:18:30 10° ENE visible
21 Feb - 17:00:27 10° WNW 17:06:49 60° NNE 17:13:38 10° E night (unlit)
21 Feb - 18:53:54 10° WNW 19:00:24 51° SSW 19:07:23 10° SE night (unlit)
21 Feb - 20:50:09 10° WSW 20:53:59 15° SSW 20:57:57 10° S night (unlit)
22 Feb - 08:24:11 10° SSW 08:29:53 28° SSE 08:35:17 10° E daylight
22 Feb - 10:16:39 10° WSW 10:23:12 88° NNW 10:29:28 10° ENE daylight
22 Feb - 12:11:07 10° W 12:16:55 38° NNW 12:22:40 10° NE daylight
22 Feb - 14:05:50 10° WNW 14:11:12 29° N 14:16:41 10° ENE visible
22 Feb - 15:59:22 10° NW 16:05:25 45° NNE 16:11:46 10° E visible
22 Feb - 17:52:33 10° WNW 17:59:05 73° SSW 18:06:06 10° ESE night (unlit)
22 Feb - 19:47:22 10° W 19:52:34 23° SSW 19:58:02 10° SSE night (unlit)
23 Feb - 07:23:53 10° SSW 07:28:35 19° SSE 07:33:05 10° ESE daylight
23 Feb - 09:15:19 10° SW 09:21:59 65° SSE 09:28:15 10° ENE daylight
23 Feb - 11:09:20 10° W 11:15:31 47° NNW 11:21:31 10° ENE daylight
23 Feb - 13:04:17 10° WNW 13:09:40 29° N 13:15:04 10° ENE visible
23 Feb - 14:58:15 10° NW 15:03:58 36° NNE 15:09:53 10° ENE visible
23 Feb - 16:51:24 10° WNW 16:57:47 81° NNE 17:04:37 10° ESE night (unlit)
23 Feb - 18:45:22 10° W 18:51:13 33° SSW 18:57:28 10° SSE night (unlit)
24 Feb - 06:24:33 10° S 06:27:12 12° SSE 06:29:48 10° SE daylight
24 Feb - 08:14:12 10° SW 08:20:44 44° SSE 08:26:52 10° E daylight
24 Feb - 10:07:37 10° WSW 10:14:11 64° NNW 10:20:25 10° ENE daylight
24 Feb - 12:02:32 10° WNW 12:08:08 32° N 12:13:40 10° NE daylight
24 Feb - 13:57:01 10° NW 14:02:29 31° N 14:08:01 10° ENE visible
24 Feb - 15:50:17 10° WNW 15:56:29 59° NNE 16:02:59 10° E visible
24 Feb - 17:43:46 10° W 17:49:57 48° SSW 17:56:33 10° SE night (unlit)
24 Feb - 19:40:14 10° WSW 19:43:27 14° SSW 19:46:46 10° S night (unlit)
25 Feb - 07:13:21 10° SSW 07:19:27 30° SSE 07:25:12 10° E daylight
25 Feb - 09:06:01 10° WSW 09:12:53 87° NNW 09:19:19 10° ENE daylight
25 Feb - 11:00:41 10° W 11:06:40 38° NNW 11:12:26 10° NE daylight
25 Feb - 12:55:34 10° WNW 13:00:57 29° N 13:06:19 10° ENE visible
25 Feb - 14:49:11 10° NW 14:55:08 45° NNE 15:01:14 10° E visible
25 Feb - 16:42:25 10° WNW 16:48:43 71° SSW 16:55:23 10° ESE visible
25 Feb - 18:37:19 10° WSW 18:42:05 21° SSW 18:47:05 10° SSE night (unlit)
